Location: Newark
(41.0400°S, 62.7845°W)
Time: 14:07:57
(UTC+00:00)

STARLINK-3086 - Pass Details

Date: 03 June 2022
Orbit: 570 x 574 km, 70.0° (Epoch: 30 June)

Event Time Altitude Azimuth Distance (km) Brightness Sun altitude
Rises 21:14:43 0° 212° (SSW) 2,812 7.3 -4.9°
Reaches altitude 10° 21:17:02 10° 219° (SW) 1,905 6.6 -5.3°
Maximum altitude 21:21:03 42° 289° (WNW) 831 5.3 -6.0°
Drops below altitude 10° 21:25:02 10° 0° (N) 1,879 6.7 -6.7°
Sets 21:27:18 0° 7° (N) 2,768 7.4 -7.1°
